[[{"header":{"parameterUnit":"m.s-1","parameterCategory":1,"la1":30.2991,"la2":30.254,"lo1":-89.0895,"lo2":-89.0444,"dy":0.0017,"dx":0.0017,"nx":28,"ny":28,"refTime":"2025-05-25T03:00:00:Z","depth":0,"parameterNumber":2,"parameterNumberName":"U-component_of_WINDS"},"data":[0,0,0,0,0,0,0,0,0,0,0,0,0,0,0,0,0,0,0,0,0,0,0,0,0,0,0,0,0,0,0,0,0,0,0,0,0,0,0,0,0,0,0,0,0,0,0,0,0,0,0,0,0,0,0,0,0,0,-0.2733,-0.2733,0,-0.2729,-0.2729,-0.2729,-0.2742,-0.2742,-0.2742,-0.2743,-0.2737,-0.2737,-0.2736,0,0,0,0,0,0,0,0,0,0,0,0,0,-0.2752,-0.2751,-0.2733,-0.2733,-0.2733,-0.2729,-0.2729,-0.2729,-0.2742,-0.2742,-0.2743,-0.2743,-0.2737,-0.2737,-0.2736,0,0,0,0,0,0,0,0,0,0,0,0,0,-0.2745,-0.2751,-0.2733,-0.2739,-0.2739,-0.2729,-0.2729,-0.2729,-0.2742,-0.2742,-0.2743,-0.2743,-0.2738,-0.2737,-0.2736,-0.272,0,0,-0.2734,-0.2733,0,0,0,0,0,0,0,0,-0.2746,-0.2745,-0.2738,-0.2739,-0.2739,-0.2737,-0.2734,-0.2726,-0.2741,-0.2741,-0.2743,-0.2744,-0.2736,-0.2736,-0.2734,-0.2719,-0.2719,-0.2734,-0.2733,-0.2733,-0.2733,0,0,0,0,0,0,0,-0.2746,-0.2745,-0.2732,-0.2738,-0.2739,-0.2742,-0.2741,-0.2732,-0.2735,-0.2741,-0.2742,-0.2741,-0.2737,-0.2734,-0.2734,-0.2719,-0.2734,-0.2733,-0.2733,-0.2732,-0.2692,-0.2691,0,0,0,0,0,0,-0.2746,-0.2745,-0.2732,-0.2731,-0.2744,-0.2741,-0.2741,-0.2737,-0.2735,-0.2736,-0.2741,-0.2742,-0.2735,-0.2735,-0.2734,-0.2715,-0.2733,-0.2732,-0.2732,-0.2693,-0.2692,-0.2691,0,0,0,0,0,0,-0.2746,-0.2745,-0.2732,-0.2739,-0.2737,-0.274,-0.2736,-0.2736,-0.2734,-0.2735,-0.2736,-0.2738,-0.2736,-0.2735,-0.2723,-0.2715,-0.2732,-0.2731,-0.2693,-0.2692,-0.2692,-0.2677,0,0,0,0,0,0,-0.2747,-0.2745,-0.2738,-0.2738,-0.2737,-0.2722,-0.2735,-0.2736,-0.2733,-0.2734,-0.2733,-0.2733,-0.2736,-0.2724,-0.2723,-0.2714,-0.2731,-0.2694,-0.2693,-0.2692,-0.2678,-0.2675,-0.2673,0,0,0,0,0,-0.2747,-0.2734,-0.2738,-0.2736,-0.2729,-0.2721,-0.272,-0.2725,-0.2732,-0.2726,-0.2727,-0.2733,-0.2716,-0.2723,-0.2721,-0.2712,-0.2695,-0.2693,-0.2692,-0.2679,-0.2676,-0.2673,0,0,0,0,0,0,-0.2732,-0.2734,-0.2738,-0.2725,-0.2723,-0.2723,-0.2716,-0.2721,-0.2717,-0.2718,-0.2724,-0.2723,-0.2711,-0.271,-0.2718,-0.2697,-0.2707,-0.2705,-0.2698,-0.2695,-0.2692,-0.2693,-0.273,0,0,0,0,0,-0.2727,-0.2721,-0.2723,-0.271,-0.2709,-0.2713,-0.2709,-0.2713,-0.2711,-0.271,-0.271,-0.2708,-0.2703,-0.2698,-0.2693,-0.2678,-0.2678,-0.2671,-0.2669,-0.2667,-0.2665,-0.2658,-0.2655,-0.2687,-0.2687,-0.2687,0,0,-0.2717,-0.2717,-0.2713,-0.2707,-0.2706,-0.27,-0.2712,-0.2704,-0.2699,-0.2709,-0.2699,-0.2699,-0.2697,-0.2684,-0.2678,-0.2683,-0.2656,-0.2665,-0.2663,-0.2663,-0.2656,-0.2653,-0.2651,-0.2686,-0.2686,-0.2686,0,0,-0.2695,-0.2694,-0.2684,-0.2683,-0.2682,-0.2684,-0.2682,-0.2682,-0.2683,-0.2673,-0.268,-0.2674,-0.2664,-0.2663,-0.266,-0.2639,-0.2645,-0.2637,-0.2625,-0.2618,-0.2615,-0.2613,-0.2606,-0.2603,-0.2636,-0.2635,-0.2635,0,-0.2682,-0.2673,-0.2678,-0.267,-0.2668,-0.2677,-0.2668,-0.2666,-0.2663,-0.2661,-0.2667,-0.2655,-0.2654,-0.2641,-0.2636,-0.2634,-0.2632,-0.2637,-0.2615,-0.2613,-0.2611,-0.2604,-0.2602,-0.2635,-0.2635,-0.2635,-0.2635,0,-0.2657,-0.2651,-0.2643,-0.264,-0.2637,-0.2628,-0.2633,-0.2629,-0.2633,-0.2635,-0.2625,-0.2624,-0.262,-0.2617,-0.262,-0.2605,-0.2608,-0.2614,-0.2624,-0.2607,-0.2601,-0.2598,-0.2633,-0.2634,-0.2634,-0.2634,0,0,-0.2625,-0.2627,-0.2624,-0.2623,-0.2623,-0.2618,-0.261,-0.2606,-0.2602,-0.26,-0.2593,-0.2585,-0.2591,-0.2589,-0.2593,-0.2586,-0.257,-0.2594,-0.2594,-0.259,-0.2554,-0.2549,-0.2546,-0.2574,-0.2574,-0.2573,-0.2554,0,-0.2604,-0.259,-0.2596,-0.2582,-0.2576,-0.2585,-0.2578,-0.2577,-0.2579,-0.2574,-0.2576,-0.2571,-0.2579,-0.2578,-0.2572,-0.2573,-0.2563,-0.2575,-0.2568,-0.2568,-0.2569,-0.2543,-0.2538,-0.252,-0.2552,-0.2551,-0.2551,0,-0.2577,-0.2575,-0.256,-0.2562,-0.256,-0.2553,-0.2551,-0.2546,-0.2545,-0.2547,-0.2545,-0.255,-0.2543,-0.2553,-0.2542,-0.255,-0.2548,-0.2548,-0.2548,-0.2547,-0.2558,-0.2542,-0.2514,-0.2511,-0.2547,-0.2547,-0.2548,0,-0.2556,-0.2549,-0.2539,-0.2538,-0.254,-0.2535,-0.2536,-0.2536,-0.2533,-0.2531,-0.2529,-0.2526,-0.2524,-0.2521,-0.2525,-0.2532,-0.2514,-0.2525,-0.2516,-0.2516,-0.2511,-0.2512,-0.2483,-0.2509,-0.2509,-0.251,-0.251,0,-0.2531,-0.2522,-0.253,-0.2524,-0.2515,-0.2521,-0.2511,-0.2513,-0.2513,-0.2508,-0.2515,-0.251,-0.2516,-0.2511,-0.2515,-0.2506,-0.2505,-0.2506,-0.2507,-0.2505,-0.2505,-0.2504,-0.2506,-0.2509,-0.2509,-0.2509,-0.2509,0,-0.2506,-0.251,-0.2501,-0.2504,-0.2504,-0.2497,-0.2499,-0.2494,-0.2497,-0.249,-0.2489,-0.2493,-0.2488,-0.2493,-0.2487,-0.249,-0.2478,-0.2481,-0.2479,-0.248,-0.2471,-0.2472,-0.244,-0.2437,-0.2465,-0.2465,-0.2465,0,-0.249,-0.2484,-0.2486,-0.2484,-0.2484,-0.2479,-0.2477,-0.2483,-0.2481,-0.248,-0.2475,-0.2471,-0.2468,-0.246,-0.2462,-0.2459,-0.2462,-0.2451,-0.2461,-0.246,-0.2462,-0.2463,-0.2462,-0.2449,-0.2449,-0.2448,-0.2448,0,-0.2463,-0.2466,-0.2462,-0.246,-0.2458,-0.2456,-0.2455,-0.2452,-0.2459,-0.2456,-0.2451,-0.2449,-0.2445,-0.2441,-0.2438,-0.2438,-0.2444,-0.2445,-0.2443,-0.2441,-0.2441,-0.2441,-0.2473,-0.2446,-0.2446,-0.2446,-0.2446,-0.2446,-0.2442,-0.2437,-0.2438,-0.2435,-0.2435,-0.2434,-0.243,-0.2432,-0.2429,-0.2426,-0.243,-0.2424,-0.2425,-0.2422,-0.2422,-0.2418,-0.2422,-0.2419,-0.2418,-0.2417,-0.2416,-0.2441,-0.2417,-0.2417,-0.2417,-0.2417,-0.2417,0,-0.2415,-0.2417,-0.2413,-0.2412,-0.241,-0.2416,-0.2415,-0.2413,-0.2408,-0.2408,-0.2405,-0.2401,-0.2397,-0.24,-0.2397,-0.2393,-0.2396,-0.2392,-0.2392,-0.2393,-0.2412,-0.2414,-0.239,-0.239,-0.239,-0.239,-0.239,-0.239,-0.2401,-0.2393,-0.2396,-0.2389,-0.239,-0.2386,-0.2385,-0.2384,-0.2384,-0.2379,-0.2376,-0.2378,-0.2379,-0.2376,-0.2373,-0.2374,-0.2373,-0.2368,-0.237,-0.2388,-0.2391,-0.2394,-0.2396,-0.2368,-0.2368,-0.2351,-0.2351,-0.2351]},{"header":{"parameterUnit":"m.s-1","parameterCategory":1,"la1":30.2991,"la2":30.254,"lo1":-89.0895,"lo2":-89.0444,"dy":0.0017,"dx":0.0017,"nx":28,"ny":28,"refTime":"2025-05-25T03:00:00:Z","depth":0,"parameterNumber":3,"parameterNumberName":"V-component_of_WINDS"},"data":[0,0,0,0,0,0,0,0,0,0,0,0,0,0,0,0,0,0,0,0,0,0,0,0,0,0,0,0,0,0,0,0,0,0,0,0,0,0,0,0,0,0,0,0,0,0,0,0,0,0,0,0,0,0,0,0,0,0,4.8471,4.8471,0,4.8462,4.8462,4.8462,4.8391,4.8389,4.8387,4.8385,4.8376,4.8378,4.8379,0,0,0,0,0,0,0,0,0,0,0,0,0,4.8428,4.8429,4.8471,4.8471,4.8471,4.8462,4.8462,4.8462,4.8391,4.8389,4.8387,4.8385,4.8376,4.8377,4.8379,0,0,0,0,0,0,0,0,0,0,0,0,0,4.8435,4.8429,4.8471,4.8435,4.8431,4.8462,4.8462,4.8462,4.8391,4.8389,4.8386,4.8384,4.8375,4.8377,4.8379,4.8445,0,0,4.8386,4.8387,0,0,0,0,0,0,0,0,4.8435,4.8437,4.844,4.8437,4.8433,4.8425,4.8443,4.8456,4.8392,4.8407,4.8385,4.8382,4.8395,4.8395,4.8399,4.8444,4.8444,4.8386,4.8387,4.8388,4.8389,0,0,0,0,0,0,0,4.8435,4.8437,4.8467,4.844,4.8436,4.8419,4.8417,4.8445,4.8415,4.8405,4.84,4.84,4.8392,4.8397,4.8398,4.8444,4.8386,4.8388,4.8389,4.839,4.8542,4.8544,0,0,0,0,0,0,4.8439,4.8437,4.8468,4.8467,4.8428,4.8422,4.8419,4.843,4.8415,4.841,4.8402,4.8396,4.8395,4.8396,4.8398,4.8472,4.8388,4.839,4.8391,4.8539,4.8542,4.8545,0,0,0,0,0,0,4.8438,4.8443,4.8468,4.8451,4.8453,4.8425,4.8438,4.8431,4.8436,4.8412,4.8407,4.8412,4.8393,4.8395,4.8433,4.8471,4.8391,4.8393,4.8535,4.854,4.8544,4.8623,0,0,0,0,0,0,4.8438,4.8443,4.8467,4.8452,4.8454,4.8504,4.844,4.8433,4.844,4.8432,4.8421,4.8416,4.8391,4.8431,4.8435,4.8472,4.8394,4.8532,4.8537,4.8542,4.8617,4.8629,4.864,0,0,0,0,0,4.8436,4.849,4.8469,4.8473,4.8484,4.8506,4.8508,4.8477,4.8443,4.8467,4.8452,4.8417,4.8466,4.8435,4.844,4.8478,4.8529,4.8536,4.8542,4.8612,4.8627,4.864,0,0,0,0,0,0,4.851,4.8487,4.8463,4.8514,4.8513,4.8494,4.8524,4.8494,4.8503,4.8496,4.8458,4.8456,4.85,4.8493,4.8459,4.854,4.8492,4.8499,4.8543,4.8557,4.8569,4.8569,4.8396,0,0,0,0,0,4.8533,4.8553,4.8532,4.8578,4.8579,4.8552,4.8561,4.8537,4.8534,4.8534,4.8521,4.852,4.8535,4.8546,4.8559,4.8616,4.8612,4.8644,4.8656,4.8666,4.8672,4.8702,4.8716,4.8566,4.8566,4.8566,0,0,4.8579,4.8569,4.8584,4.8593,4.8589,4.8611,4.8552,4.8577,4.8593,4.8537,4.8573,4.8564,4.856,4.8608,4.8629,4.8604,4.8713,4.8674,4.8682,4.8683,4.871,4.8724,4.8736,4.857,4.8569,4.8569,0,0,4.8674,4.8669,4.8706,4.8704,4.8699,4.8681,4.869,4.8676,4.8668,4.8703,4.8662,4.868,4.8708,4.8706,4.8709,4.8805,4.8772,4.881,4.887,4.8899,4.8911,4.8921,4.8954,4.8967,4.8817,4.8817,4.8817,0,4.8732,4.8763,4.873,4.8758,4.8763,4.8714,4.8752,4.8751,4.8751,4.8756,4.8728,4.8761,4.8755,4.8801,4.8825,4.8829,4.8838,4.881,4.8912,4.8922,4.8931,4.8962,4.8975,4.8822,4.8821,4.8821,4.882,0,4.8834,4.8856,4.8887,4.8888,4.8897,4.893,4.8902,4.8915,4.8891,4.8876,4.8912,4.8903,4.8913,4.8923,4.89,4.8967,4.8951,4.8919,4.8869,4.895,4.8979,4.8991,4.8828,4.8826,4.8825,4.8824,0,0,4.8974,4.8957,4.8968,4.8968,4.8959,4.8976,4.9007,4.9017,4.9028,4.903,4.9055,4.9079,4.9049,4.9052,4.9029,4.9055,4.913,4.9018,4.9018,4.9039,4.9202,4.9226,4.9241,4.9109,4.9111,4.9113,4.9202,0,4.9065,4.9116,4.9087,4.9143,4.9163,4.9117,4.9144,4.9142,4.9128,4.9144,4.9129,4.9147,4.9105,4.9107,4.913,4.9116,4.9162,4.9109,4.9131,4.9132,4.9132,4.9256,4.9281,4.9366,4.9213,4.9215,4.9217,0,4.9177,4.9183,4.9241,4.9228,4.9235,4.926,4.9267,4.9282,4.9278,4.9267,4.9271,4.9242,4.9271,4.9223,4.9263,4.9228,4.9235,4.923,4.9232,4.9232,4.9179,4.9259,4.9393,4.9405,4.9234,4.9233,4.9231,0,4.9273,4.9296,4.9333,4.9334,4.9321,4.9339,4.9334,4.9328,4.9336,4.9342,4.9346,4.9356,4.9361,4.9369,4.9343,4.9311,4.9387,4.9336,4.9378,4.9379,4.9395,4.9394,4.9532,4.9402,4.9402,4.9401,4.9401,0,4.9376,4.9413,4.9376,4.9399,4.9439,4.9406,4.9446,4.9436,4.9432,4.9452,4.9413,4.9433,4.9398,4.9414,4.9394,4.943,4.9433,4.9424,4.9418,4.9427,4.9428,4.9431,4.9424,4.9405,4.9404,4.9403,4.9403,0,4.9489,4.9466,4.9503,4.9488,4.9485,4.9515,4.9501,4.9522,4.9506,4.9532,4.9536,4.9512,4.9529,4.9505,4.9519,4.9506,4.9555,4.9541,4.9556,4.9552,4.9594,4.959,4.9737,4.9755,4.9615,4.9616,4.9617,0,4.9556,4.9584,4.9571,4.9581,4.9579,4.9597,4.9604,4.9573,4.9583,4.9581,4.9602,4.9616,4.9625,4.9655,4.9639,4.965,4.9635,4.9686,4.9636,4.9644,4.9635,4.9633,4.9635,4.9696,4.9697,4.9699,4.97,0,4.9678,4.9665,4.9677,4.9686,4.9696,4.9701,4.9704,4.9715,4.9682,4.9695,4.9712,4.9719,4.9734,4.9749,4.9756,4.9751,4.972,4.9716,4.9726,4.9735,4.9742,4.9738,4.9583,4.9712,4.9711,4.971,4.9709,4.9709,4.9769,4.9791,4.9785,4.98,4.9799,4.9802,4.9821,4.9808,4.9821,4.9831,4.9812,4.9834,4.983,4.9836,4.9835,4.9851,4.9829,4.9844,4.9847,4.9851,4.9858,4.974,4.9853,4.9852,4.9852,4.9851,4.9851,0,4.9888,4.9882,4.9896,4.9901,4.9913,4.9883,4.9884,4.9896,4.9916,4.9915,4.9925,4.9945,4.9958,4.9944,4.9955,4.9971,4.9957,4.9975,4.9973,4.9972,4.9877,4.9867,4.9986,4.9986,4.9986,4.9986,4.9986,4.9986,4.9951,4.9986,4.9973,5.0007,5.0001,5.0022,5.0025,5.0028,5.0027,5.005,5.0062,5.0052,5.0045,5.0056,5.0067,5.0062,5.0068,5.009,5.0081,4.9992,4.9979,4.9966,4.9956,5.0092,5.0092,5.0174,5.0175,5.0176]}]]